This is the latest recevied weather packets stored in our database for station/object W6JCZ-13. If no packets are shown the sender has not sent any weather packets the latest 1 day(s).
| Time | Temp. | Humidity | Pressure | Rain* | Wind** | Luminosity | Snow |
|---|---|---|---|---|---|---|---|
| 1778047517 | 15.56° C | 80% | 1015.4 hPa | 0 mm | - | - | - |
| 1778046917 | 15.56° C | 80% | 1015.4 hPa | 0 mm | - | - | - |
| 1778046317 | 15.56° C | 80% | 1015.3 hPa | 0 mm | - | - | - |
| 1778045717 | 15.56° C | 79% | 1015.3 hPa | 0 mm | - | - | - |
| 1778045117 | 15.56° C | 79% | 1015.2 hPa | 0 mm | - | - | - |
| 1778044517 | 16.11° C | 79% | 1015.2 hPa | 0 mm | - | - | - |
| 1778043917 | 16.11° C | 79% | 1015.1 hPa | 0 mm | - | - | - |
| 1778042117 | 16.11° C | 78% | 1014.4 hPa | 0 mm | - | - | - |
| 1778040916 | 16.11° C | 78% | 1014.2 hPa | 0 mm | - | - | - |
| 1778040317 | 16.11° C | 78% | 1014.1 hPa | 0 mm | - | - | - |
| 1778038516 | 16.67° C | 77% | 1014.1 hPa | 0 mm | - | - | - |
| 1778037317 | 16.67° C | 76% | 1013.6 hPa | 0 mm | - | - | - |
| 1778034916 | 17.78° C | 74% | 1013.2 hPa | 0 mm | - | - | - |
| 1778033716 | 17.78° C | 72% | 1013 hPa | 0 mm | - | - | - |
| 1778031916 | 18.33° C | 71% | 1013 hPa | 0 mm | - | - | - |
| 1778030716 | 18.33° C | 70% | 1012.9 hPa | 0 mm | - | - | - |
| 1778028916 | 18.89° C | 70% | 1012.8 hPa | 0 mm | - | - | - |
| 1778028316 | 18.89° C | 69% | 1012.7 hPa | 0 mm | - | - | - |
| 1778024116 | 19.44° C | 68% | 1012.6 hPa | 0 mm | - | - | - |
| 1778019916 | 19.44° C | 68% | 1013 hPa | 0 mm | - | - | - |
| 1778016916 | 18.89° C | 70% | 1013.5 hPa | 0 mm | - | - | - |
| 1778016316 | 18.89° C | 69% | 1013.6 hPa | 0 mm | - | - | - |
| 1778014516 | 18.89° C | 70% | 1013.7 hPa | 0 mm | - | - | - |
| 1778012716 | 18.89° C | 69% | 1013.7 hPa | 0 mm | - | - | - |
| 1778012116 | 17.78° C | 71% | 1014 hPa | 0 mm | - | - | - |
* Rain latest hour (hover to see other rain measurements)
** Current wind speed in m/s (hover to see current wind gust speed)